Location: Prairie State College
(41.5244°N, 87.6382°W)
Time: 06:17:18
(UTC-05:00)

Amateur Radio Satellites - All Passes

Search period start: 24 October 2014 05:47
Search period end: 25 October 2014 05:47
Location: Prairie State College, 41.5244°N, 87.6382°W

Satellite Date Start Highest point End Downlink Frequencies (MHz)
Time Altitude Azimuth
STRAND 1 24 Oct 05:48:43 05:52:46 24° 65° (ENE) 05:56:51 ?
RS-15 24 Oct 06:13:12 06:23:44 45° 43° (NE) 06:34:38 29.354 - 29.394 USB, Beacon 29.352 USB
Uosat F 24 Oct 06:38:53 06:42:40 22° 296° (WNW) 06:46:27 435.120 FM
Sapphire 24 Oct 06:43:33 06:45:14 11° 325° (NW) 06:46:56 437.095 MHz 1200 baud AX-25 AFSK
Hamsat 24 Oct 06:43:58 06:48:10 85° 103° (ESE) 06:52:23 145.90 MHz
JAS-2 24 Oct 06:50:19 06:58:03 75° 287° (WNW) 07:05:51 435.800 - 435.900 CW/SSB, 435.910 FM
SO-67 24 Oct 06:58:16 06:59:50 13° 92° (E) 07:01:24 435.3500 MHz FM
AO-7 24 Oct 07:12:38 07:19:08 26° 306° (NW) 07:25:38 29.400 - 29.500 MHz
STRAND 1 24 Oct 07:26:51 07:31:42 42° 261° (W) 07:36:36 ?
Saudisat 1A 24 Oct 07:38:47 07:43:00 49° 118° (ESE) 07:47:15 436.775 MHz
RS-15 24 Oct 08:25:39 08:36:33 61° 246° (WSW) 08:47:57 29.354 - 29.394 USB, Beacon 29.352 USB
SO-67 24 Oct 08:29:47 08:32:57 34° 287° (WNW) 08:36:06 435.3500 MHz FM
JAS-2 24 Oct 08:37:18 08:41:52 17° 305° (NW) 08:46:29 435.800 - 435.900 CW/SSB, 435.910 FM
MaSat-1 24 Oct 08:40:44 08:42:04 13° 52° (NE) 08:43:21 437.345 MHz
HO-68 24 Oct 08:47:21 08:53:00 24° 93° (E) 08:58:36 435.675 MHz FM
PANSAT 24 Oct 08:50:51 08:51:53 11° 174° (S) 08:52:54 not established
Saudisat 1A 24 Oct 09:19:26 09:22:49 21° 316° (NW) 09:26:14 436.775 MHz
UKube-1 24 Oct 09:50:43 09:54:20 25° 96° (E) 09:57:55 145.840 MHz, 145.915 MHz
MaSat-1 24 Oct 10:15:53 10:17:39 17° 253° (WSW) 10:19:21 437.345 MHz
FUNcube-1 24 Oct 10:29:09 10:32:41 25° 95° (E) 10:36:09 145.950 - 145.970 MHz USB
PANSAT 24 Oct 10:30:30 10:31:13 10° 187° (S) 10:31:56 not established
Oscar 11 24 Oct 10:32:19 10:36:37 69° 102° (ESE) 10:40:54 145.825 FM, Beacon 2401.500 USB
HO-68 24 Oct 10:34:04 10:41:10 64° 291° (WNW) 10:48:14 435.675 MHz FM
RS-15 24 Oct 10:43:45 10:46:31 11° 266° (W) 10:49:20 29.354 - 29.394 USB, Beacon 29.352 USB
ZACube-1 24 Oct 11:19:58 11:24:16 84° 284° (WNW) 11:28:26 437.345 MHz
UKube-1 24 Oct 11:26:42 11:30:30 30° 292° (WNW) 11:34:17 145.840 MHz, 145.915 MHz
KITSAT 1 24 Oct 11:39:59 11:47:13 38° 109° (ESE) 11:54:28 435.175 FM
Sapphire 24 Oct 12:00:24 12:04:31 21° 45° (NE) 12:08:36 437.095 MHz 1200 baud AX-25 AFSK
FUNcube-1 24 Oct 12:05:25 12:09:01 27° 292° (WNW) 12:12:33 145.950 - 145.970 MHz USB
Oscar 19 24 Oct 12:07:30 12:10:15 15° 60° (ENE) 12:13:01 437.125 CW, 437.150 USB
ISS 24 Oct 12:10:19 12:12:41 18° 132° (SE) 12:15:03 145.800 FM
Oscar 11 24 Oct 12:10:42 12:12:13 12° 298° (WNW) 12:13:45 145.825 FM, Beacon 2401.500 USB
PCSat 24 Oct 12:22:37 12:27:28 32° 50° (NE) 12:32:16 145.825 MHz
HO-68 24 Oct 12:24:30 12:27:30 13° 310° (NW) 12:30:31 435.675 MHz FM
Oscar 10/S400 24 Oct 12:25:09 12:42:49 27° 150° (SSE) 12:58:30 145.825 - 145.975 CW/USB, Beacon 145.810 USB
Oscar 16 24 Oct 12:50:49 12:55:31 36° 68° (ENE) 13:00:12 437.025 USB, Beacon 2401.1428
AO-Echo 24 Oct 12:51:29 12:54:49 19° 62° (ENE) 12:58:13 ?
SO-50 24 Oct 13:07:08 13:11:34 66° 120° (ESE) 13:16:09 436.795 FM
Uribyol 2 24 Oct 13:10:09 13:14:19 25° 65° (ENE) 13:18:30 436.500 FM
JAS-1B 24 Oct 13:11:34 13:17:15 48° 70° (ENE) 13:22:40 435.800 - 435.900 CW/SSB
ITAMSAT 1 24 Oct 13:15:56 13:20:12 26° 65° (ENE) 13:24:29 435.822 SSB
Gurwin Techsat 1B 24 Oct 13:33:32 13:37:22 21° 63° (ENE) 13:41:12 435.225 FM
KITSAT 1 24 Oct 13:34:33 13:42:23 52° 309° (NW) 13:50:15 435.175 FM
Sapphire 24 Oct 13:43:02 13:48:26 67° 244° (WSW) 13:53:48 437.095 MHz 1200 baud AX-25 AFSK
Oscar 19 24 Oct 13:43:49 13:48:58 75° 257° (WSW) 13:54:07 437.125 CW, 437.150 USB
TMSAT-1 24 Oct 13:45:14 13:48:56 20° 62° (ENE) 13:52:38 436.925 FM
ISS 24 Oct 13:45:50 13:49:06 54° 329° (NNW) 13:52:24 145.800 FM
AO-27 24 Oct 14:00:20 14:05:29 67° 73° (ENE) 14:10:41 436.795 MHz FM
PCSat 24 Oct 14:05:55 14:10:56 39° 249° (WSW) 14:15:56 145.825 MHz
AO-7 24 Oct 14:27:55 14:34:06 24° 53° (NE) 14:40:17 29.400 - 29.500 MHz
AO-Echo 24 Oct 14:28:21 14:33:06 54° 260° (W) 14:38:04 ?
Oscar 16 24 Oct 14:30:33 14:34:54 27° 265° (W) 14:39:16 437.025 USB, Beacon 2401.1428
UOSAT-12 24 Oct 14:33:18 14:37:42 45° 117° (ESE) 14:42:12 437.025 FM, 437.400 FM
Uribyol 2 24 Oct 14:48:35 14:53:32 43° 261° (W) 14:58:30 436.500 FM
SO-50 24 Oct 14:49:22 14:52:35 19° 319° (NW) 14:55:52 436.795 FM
ITAMSAT 1 24 Oct 14:54:36 14:59:28 40° 262° (W) 15:04:23 435.822 SSB
JAS-1B 24 Oct 15:03:44 15:08:14 22° 266° (W) 15:12:34 435.800 - 435.900 CW/SSB
Gurwin Techsat 1B 24 Oct 15:11:44 15:16:55 54° 260° (W) 15:22:08 435.225 FM
TMSAT-1 24 Oct 15:23:11 15:28:23 57° 259° (W) 15:33:38 436.925 FM
ISS 24 Oct 15:24:03 15:26:22 17° 348° (NNW) 15:28:40 145.800 FM
KITSAT 1 24 Oct 15:34:59 15:39:56 17° 334° (NNW) 15:44:53 435.175 FM
AO-27 24 Oct 15:42:34 15:45:28 15° 270° (W) 15:48:24 436.795 MHz FM
Saudisat 1A 24 Oct 16:05:14 16:09:27 42° 51° (NE) 16:13:39 436.775 MHz
Uosat F 24 Oct 16:12:38 16:17:36 66° 73° (ENE) 16:22:37 435.120 FM
UOSAT-12 24 Oct 16:14:12 16:18:03 25° 315° (NW) 16:21:58 437.025 FM, 437.400 FM
AO-7 24 Oct 16:17:41 16:25:58 83° 253° (WSW) 16:34:18 29.400 - 29.500 MHz
ISS 24 Oct 17:01:54 17:04:02 16° 8° (N) 17:06:10 145.800 FM
JAS-2 24 Oct 17:02:38 17:08:20 50° 69° (ENE) 17:14:48 435.800 - 435.900 CW/SSB, 435.910 FM
Hamsat 24 Oct 17:37:09 17:41:18 60° 74° (ENE) 17:45:26 145.90 MHz
KITSAT 1 24 Oct 17:37:20 17:39:33 11° 5° (N) 17:41:46 435.175 FM
Saudisat 1A 24 Oct 17:45:24 17:48:45 21° 248° (WSW) 17:52:06 436.775 MHz
OPAL 24 Oct 17:53:05 17:57:54 48° 102° (ESE) 18:02:40 ?
Uosat F 24 Oct 17:54:13 17:56:51 14° 269° (W) 17:59:29 435.120 FM
AO-7 24 Oct 18:15:18 18:19:53 16° 271° (W) 18:24:30 29.400 - 29.500 MHz
ISS 24 Oct 18:38:14 18:41:25 39° 28° (NNE) 18:44:35 145.800 FM
JAS-2 24 Oct 18:48:58 18:53:48 26° 270° (W) 18:59:09 435.800 - 435.900 CW/SSB, 435.910 FM
SO-67 24 Oct 19:01:54 19:05:18 70° 77° (ENE) 19:08:45 435.3500 MHz FM
Hamsat 24 Oct 19:16:20 19:17:37 11° 270° (W) 19:18:54 145.90 MHz
HO-68 24 Oct 19:17:24 19:22:19 20° 55° (NE) 19:27:16 435.675 MHz FM
KITSAT 1 24 Oct 19:32:25 19:38:40 24° 35° (NE) 19:44:52 435.175 FM
OPAL 24 Oct 19:32:48 19:36:26 21° 299° (WNW) 19:40:04 ?
STRAND 1 24 Oct 19:36:57 19:42:05 64° 102° (ESE) 19:47:11 ?
SO-50 24 Oct 19:59:45 20:01:44 12° 34° (NE) 20:03:44 436.795 FM
AO-40 24 Oct 20:14:16 22:35:26 32° 206° (SSW) 03:10:34 Beacon 2401.320
ISS 24 Oct 20:15:08 20:18:00 27° 225° (SW) 20:20:52 145.800 FM
RS-15 24 Oct 20:41:01 20:48:32 22° 100° (E) 20:55:57 29.354 - 29.394 USB, Beacon 29.352 USB
UKube-1 24 Oct 20:46:33 20:49:59 23° 66° (ENE) 20:53:25 145.840 MHz, 145.915 MHz
HO-68 24 Oct 21:02:00 21:09:10 84° 254° (WSW) 21:16:24 435.675 MHz FM
STRAND 1 24 Oct 21:17:30 21:20:44 17° 299° (WNW) 21:23:57 ?
FUNcube-1 24 Oct 21:25:35 21:29:12 24° 67° (ENE) 21:32:48 145.950 - 145.970 MHz USB
KITSAT 1 24 Oct 21:27:15 21:35:22 81° 58° (ENE) 21:43:27 435.175 FM
Oscar 11 24 Oct 21:27:16 21:31:29 54° 73° (ENE) 21:35:43 145.825 FM, Beacon 2401.500 USB
SO-50 24 Oct 21:38:27 21:43:15 62° 54° (NE) 21:48:06 436.795 FM
ZACube-1 24 Oct 22:15:54 22:20:30 79° 76° (ENE) 22:25:03 437.345 MHz
UKube-1 24 Oct 22:22:05 22:25:59 32° 263° (W) 22:29:56 145.840 MHz, 145.915 MHz
RS-15 24 Oct 22:48:15 22:59:17 89° 121° (ESE) 23:10:16 29.354 - 29.394 USB, Beacon 29.352 USB
HO-68 24 Oct 22:54:19 22:57:51 14° 272° (W) 23:01:24 435.675 MHz FM
FUNcube-1 24 Oct 23:01:12 23:05:23 35° 263° (W) 23:09:33 145.950 - 145.970 MHz USB
UOSAT-12 24 Oct 23:02:43 23:07:14 42° 50° (NE) 23:11:39 437.025 FM, 437.400 FM
Oscar 11 24 Oct 23:05:52 23:07:59 13° 269° (W) 23:10:06 145.825 FM, Beacon 2401.500 USB
SO-50 24 Oct 23:20:17 23:23:21 17° 251° (WSW) 23:26:25 436.795 FM
KITSAT 1 24 Oct 23:24:08 23:29:50 22° 257° (WSW) 23:35:32 435.175 FM
MaSat-1 24 Oct 23:51:06 23:55:16 75° 114° (ESE) 23:59:02 437.345 MHz
UOSAT-12 25 Oct 00:43:23 00:47:08 24° 248° (WSW) 00:50:49 437.025 FM, 437.400 FM
JAS-1B 25 Oct 00:55:33 00:58:51 14° 91° (E) 01:02:22 435.800 - 435.900 CW/SSB
RS-15 25 Oct 01:03:41 01:13:10 32° 328° (NNW) 01:22:45 29.354 - 29.394 USB, Beacon 29.352 USB
Oscar 16 25 Oct 01:04:21 01:06:16 12° 89° (E) 01:08:10 437.025 USB, Beacon 2401.1428
Oscar 10/S400 25 Oct 01:25:18 02:21:55 19° 244° (WSW) 04:25:38 145.825 - 145.975 CW/USB, Beacon 145.810 USB
MaSat-1 25 Oct 01:30:08 01:31:13 11° 309° (NW) 01:32:16 437.345 MHz
Oscar 19 25 Oct 01:55:30 02:00:15 38° 98° (E) 02:04:59 437.125 CW, 437.150 USB
AO-27 25 Oct 02:13:58 02:18:07 24° 94° (E) 02:22:15 436.795 MHz FM
AO-Echo 25 Oct 02:35:06 02:40:16 50° 99° (E) 02:45:24 ?
Oscar 16 25 Oct 02:41:04 02:46:12 79° 285° (WNW) 02:51:18 437.025 USB, Beacon 2401.1428
JAS-1B 25 Oct 02:43:19 02:50:01 83° 105° (ESE) 02:58:04 435.800 - 435.900 CW/SSB
Sapphire 25 Oct 02:44:19 02:47:18 15° 104° (ESE) 02:50:19 437.095 MHz 1200 baud AX-25 AFSK
Uribyol 2 25 Oct 03:00:51 03:06:04 68° 102° (ESE) 03:11:13 436.500 FM
PCSat 25 Oct 03:05:10 03:09:34 26° 108° (ESE) 03:13:59 145.825 MHz
ITAMSAT 1 25 Oct 03:06:55 03:12:09 73° 103° (ESE) 03:17:21 435.822 SSB
RS-15 25 Oct 03:22:39 03:30:22 21° 3° (N) 03:38:13 29.354 - 29.394 USB, Beacon 29.352 USB
Gurwin Techsat 1B 25 Oct 03:27:40 03:32:56 61° 101° (E) 03:38:10 435.225 FM
OPAL 25 Oct 03:32:52 03:35:01 13° 56° (ENE) 03:37:08 ?
Oscar 19 25 Oct 03:35:12 03:39:24 27° 294° (WNW) 03:43:37 437.125 CW, 437.150 USB
TMSAT-1 25 Oct 03:38:48 03:44:03 57° 101° (E) 03:49:14 436.925 FM
AO-27 25 Oct 03:52:51 03:57:48 43° 291° (WNW) 04:02:42 436.795 MHz FM
AO-Echo 25 Oct 04:14:37 04:18:40 23° 296° (WNW) 04:22:42 ?
AO-7 25 Oct 04:19:32 04:26:53 34° 97° (E) 04:34:12 29.400 - 29.500 MHz
Uosat F 25 Oct 04:21:07 04:24:49 20° 93° (E) 04:28:29 435.120 FM
Oscar 16 25 Oct 04:23:50 04:24:40 10° 303° (WNW) 04:25:31 437.025 USB, Beacon 2401.1428
Sapphire 25 Oct 04:24:39 04:30:03 74° 301° (WNW) 04:35:30 437.095 MHz 1200 baud AX-25 AFSK
JAS-1B 25 Oct 04:35:41 04:40:07 19° 300° (WNW) 04:45:00 435.800 - 435.900 CW/SSB
Uribyol 2 25 Oct 04:41:48 04:44:58 17° 299° (WNW) 04:48:07 436.500 FM
PCSat 25 Oct 04:47:31 04:52:42 45° 306° (NW) 04:57:55 145.825 MHz
ITAMSAT 1 25 Oct 04:48:02 04:51:01 16° 300° (WNW) 04:54:00 435.822 SSB
OPAL 25 Oct 05:07:59 05:13:09 90° 72° (ENE) 05:18:17 ?
Gurwin Techsat 1B 25 Oct 05:08:49 05:12:24 19° 298° (WNW) 05:15:59 435.225 FM
STRAND 1 25 Oct 05:17:33 05:19:40 13° 58° (ENE) 05:21:48 ?
TMSAT-1 25 Oct 05:19:47 05:23:30 20° 298° (WNW) 05:27:13 436.925 FM
Hamsat 25 Oct 05:25:32 05:26:07 10° 89° (E) 05:26:42 145.90 MHz
